Regional Weather Roundup
Issued by NWS Jackson, KY

Home | Current Version | Previous Version | Text Only | Print | Product List | Glossary Off
Versions: 1 2 3 4 5 6 7 8 9 10 11 12 13 14 15 16 17 18 19 20 21 22 23 24 25 26 27 28 29 30 31 32 33 34 35 36 37 38 39 40 41 42 43 44 45 46 47 48 49 50

099
ASUS43 KJKL 220310
RWRJKL

EAST KENTUCKY HOURLY WEATHER ROUNDUP
NATIONAL WEATHER SERVICE JACKSON KY
1100 PM EDT WED JUN 21 2017

NOTE: "FAIR" INDICATES FEW OR NO CLOUDS BELOW 12,000 FEET WITH
NO SIGNIFICANT WEATHER AND/OR OBSTRUCTIONS TO VISIBILITY.

* THESE REPORTS ARE NOT UNDER NWS QUALITY CONTROL AND MAY NOT
  REPORT WEATHER SUCH AS PRECIPITATION AND FOG.

KYZ079-080-083-085-087-088-110-112-115-119-120-220400
...EASTERN KENTUCKY...

CITY           SKY/WX    TMP DP  RH WIND       PRES   REMARKS
JACKSON        MOCLDY    74  64  71 CALM      30.07R
LONDON         PTCLDY    73  63  70 CALM      30.07R
SOMERSET*      CLOUDY    72  68  88 CALM      30.07R
MONTICELLO*    CLOUDY    74  69  85 NE8       30.07R
WILLIAMSBURG*  PTCLDY    70  66  88 CALM      30.08R
MIDDLESBORO*   CLOUDY    69  68  95 CALM      30.09S
HARLAN APT*    CLOUDY    68  64  88 CALM      30.11R
PIKE CO APT*     N/A     74  63  66 CALM      30.08R
BIG SANDY APT* CLOUDY    76  64  65 SW3       30.06R
MOREHEAD APT*  CLOUDY    75  64  69 S5        30.06R
$$

KYZ035-036-041-042-044-050-067-078-099-220400
...CENTRAL KENTUCKY...

CITY           SKY/WX    TMP DP  RH WIND       PRES   REMARKS
MT STERLING*   CLOUDY    73  64  73 SW3       30.06R
FLEMING/MASON* PTCLDY    75  65  71 SW7       30.03R
DANVILLE*      CLOUDY    72  63  73 CALM      30.06R
LEXINGTON      CLOUDY    76  65  68 SW7       30.04R
FRANKFORT      CLOUDY    77  65  66 SW8       30.01R
LOUISVILLE     CLOUDY    81  67  62 S9        29.99R
LEBANON*         N/A     75  66  73 S7        30.04R
GLASGOW*       CLOUDY    75  67  74 S3        30.03R
BOWLING GREEN  PTCLDY    78  71  79 S8        30.01S
$$

KYZ091>093-OHZ055-061-077-WVZ005-015-034-035-042-220400
...SOUTHERN OHIO/WEST VIRGINIA...

CITY           SKY/WX    TMP DP  RH WIND       PRES   REMARKS
COVINGTON      MOCLDY    75  68  78 SW7       29.99R
COLUMBUS       CLOUDY    78  69  73 SE6       29.96R
DAYTON         MOCLDY    76  67  73 SW8       29.99R
WILMINGTON     CLOUDY    75  69  81 SW7       29.98R
HUNTINGTON     PTCLDY    76  64  66 S6        30.02R
CHARLESTON     CLOUDY    78  61  55 SW6       30.03R
PINEVILLE*     CLOUDY    67  65  91 MISG      30.15R
BECKLEY        CLOUDY    69  61  75 SW6       30.13R
BLUEFIELD      MOCLDY    67  58  72 W5        30.17R
LOGAN CO APT*    N/A     73  61  64 CALM      30.08R
$$

VAZ002-007-008-TNZ017-027-036-066-071-220400
...SOUTHWEST VIRGINIA/EAST TENNESSEE...

CITY           SKY/WX    TMP DP  RH WIND       PRES   REMARKS
WISE*          CLOUDY    68  59  73 CALM      30.17S
JONESVILLE*      N/A     68  66  94 CALM      30.12S
ABINGDON*      CLOUDY    69  64  82 CALM      30.14S
BRISTOL        CLOUDY    68  64  87 CALM      30.11R
MORRISTOWN*    CLEAR     73  70  88 SW5       30.10R
SEVIERVILLE*   CLEAR     72  68  88 CALM      30.10R
KNOXVILLE      CLOUDY    73  66  78 SW7       30.09R
LAFOLLETTE*      N/A     72  68  88 CALM      30.12S
OAK RIDGE      CLOUDY    77  67  71 CALM      30.10R
CROSSVILLE     CLOUDY    71  66  84 CALM      30.13R
NASHVILLE      MOCLDY    77  68  73 S7        30.04R
$$

...KEY TO REMARKS...
VSB - VISIBILITY IN MILES
WCI - WIND CHILL INDEX
HX  - HEAT INDEX

$$




USA.gov is the U.S. government's official web portal to all federal, state and local government web resources and services.